Погода в Кунбатаре

Россия / Республика Дагестан     44°17′34″N   45°35′09″E
темп.,
°C
ветер,
м/с
пор.,
м/с
влажн.,
%
обл.,
%
осадки,
мм/ч
давл.,
гПа
погр.,
м
14 мая, пт
пт1400:00+15вюв34717 0.0 101481
03:00+14в33754 0.0 101446
06:00+15юв23716 0.0 1014115
09:00+22вюв234892 0.0 1014450
12:00+29вюв68357 0.0 10131049
15:00+31вюв1112250 0.0 10111323
18:00+25вюв917370 0.0 1012699
21:00+20вюв615400 0.0 1012423
15 мая, сб
сб1500:00+20вюв512400 0.0 1012286
03:00+18вюв512360 0.0 1012254
06:00+18вюв37430 0.0 1013233
09:00+24юв22404 0.0 1013461
12:00+29ю22375 0.0 10131079
15:00+31вюв44315 0.0 10111667
18:00+27вюв812250 0.0 1012422
21:00+21вюв5113722 0.0 1013246
16 мая, вс
вс1600:00+18в51043100 0.0 1012214
03:00+17вюв51246100 0.0 1011268
06:00+18вюв5135152 0.0 1011351
09:00+25вюв8123240 0.0 1010730
12:00+31вюв12141923 0.0 10081728
15:00+31вюв1316214 0.0 10071664
18:00+26вюв1019320 0.0 1007882
21:00+21в818385 0.0 1008587
17 мая, пн
пн1700:00+21вюв9193597 0.0 1005599
03:00+20вюв8154267 0.0 1006406
06:00+19вюв7134712 0.0 1006457
09:00+26юв1013325 0.0 1006854
12:00+30вюв121422100 0.0 10061360
15:00+29вюв12142437 0.0 10051164
18:00+25вюв915334 0.0 1006741
21:00+20в47415 0.0 1008126
18 мая, вт
вт1800:00+17вюв2348100 0.0 100831
03:00+16с1155100 0.0 100811
06:00+17з476196 0.1 1009198
09:00+22зсз684496 0.1 1010760
12:00+26сз7744100 0.0 10101352
15:00+27зсз7744100 0.1 10111640
18:00+24зсз7959100 0.0 1012588
21:00+21зсз61168100 0.1 1013449